Time,TemperatureF,DewpointF,PressureIn,WindDirection,WindDirectionDegrees,WindSpeedMPH,WindSpeedGustMPH,Humidity,HourlyPrecipIn,Conditions,Clouds,dailyrainin,SolarRadiationWatts/m^2,SoftwareType,DateUTC
2013-04-01 00:10:00,52.6,48.0,30.03,NNE,29,4.0,8.0,84,0.00,,,0.06,0,weatherlink.com 1.10,2013-04-01 07:10:00,
2013-04-01 00:25:00,52.7,48.0,30.04,NE,53,4.0,11.0,84,0.00,,,0.00,0,weatherlink.com 1.10,2013-04-01 07:25:00,
2013-04-01 00:40:00,53.0,48.0,30.03,NE,49,1.0,8.0,84,0.00,,,0.00,0,weatherlink.com 1.10,2013-04-01 07:40:00,
2013-04-01 00:55:00,52.9,48.0,30.04,NNE,20,3.0,5.0,84,0.00,,,0.00,0,weatherlink.com 1.10,2013-04-01 07:55:00,
2013-04-01 01:10:00,52.4,48.0,30.04,NNE,22,3.0,5.0,84,0.00,,,0.00,0,weatherlink.com 1.10,2013-04-01 08:10:00,
2013-04-01 01:25:00,52.4,48.0,30.04,NE,51,6.0,12.0,84,0.00,,,0.00,0,weatherlink.com 1.10,2013-04-01 08:25:00,
2013-04-01 01:40:00,51.8,47.0,30.04,NNE,23,8.0,10.0,84,0.00,,,0.00,0,weatherlink.com 1.10,2013-04-01 08:40:00,
2013-04-01 01:55:00,51.3,47.0,30.05,NW,317,2.0,8.0,84,0.00,,,0.00,0,weatherlink.com 1.10,2013-04-01 08:55:00,
2013-04-01 02:10:00,50.6,46.0,30.05,NW,317,0.0,2.0,84,0.00,,,0.00,0,weatherlink.com 1.10,2013-04-01 09:10:00,
2013-04-01 02:25:00,49.8,45.0,30.06,NNE,32,2.0,6.0,84,0.00,,,0.00,0,weatherlink.com 1.10,2013-04-01 09:25:00,
2013-04-01 02:40:00,50.1,46.0,30.05,NE,42,2.0,6.0,85,0.00,,,0.00,0,weatherlink.com 1.10,2013-04-01 09:40:00,
2013-04-01 02:55:00,50.8,47.0,30.06,NE,36,4.0,4.0,85,0.00,,,0.00,0,weatherlink.com 1.10,2013-04-01 09:55:00,
2013-04-01 03:10:00,50.9,47.0,30.06,NNE,24,5.0,6.0,85,0.00,,,0.00,0,weatherlink.com 1.10,2013-04-01 10:10:00,
2013-04-01 03:25:00,50.9,47.0,30.06,NNE,32,3.0,6.0,85,0.00,,,0.00,0,weatherlink.com 1.10,2013-04-01 10:25:00,
2013-04-01 03:40:00,51.2,47.0,30.06,NNE,17,5.0,7.0,85,0.00,,,0.00,0,weatherlink.com 1.10,2013-04-01 10:40:00,
2013-04-01 03:55:00,51.4,47.0,30.06,NNE,17,1.0,5.0,85,0.00,,,0.00,0,weatherlink.com 1.10,2013-04-01 10:55:00,
2013-04-01 04:10:00,51.3,47.0,30.06,NNE,24,0.0,5.0,85,0.00,,,0.00,0,weatherlink.com 1.10,2013-04-01 11:10:00,
2013-04-01 04:25:00,51.3,47.0,30.07,NNE,15,4.0,5.0,85,0.00,,,0.00,0,weatherlink.com 1.10,2013-04-01 11:25:00,
2013-04-01 04:40:00,51.2,47.0,30.07,NE,42,1.0,4.0,85,0.00,,,0.00,0,weatherlink.com 1.10,2013-04-01 11:40:00,
2013-04-01 04:55:00,51.5,47.0,30.07,NE,44,1.0,3.0,85,0.00,,,0.00,0,weatherlink.com 1.10,2013-04-01 11:55:00,
2013-04-01 05:10:00,51.3,47.0,30.08,NNE,32,0.0,4.0,85,0.00,,,0.00,0,weatherlink.com 1.10,2013-04-01 12:10:00,
2013-04-01 05:25:00,51.2,47.0,30.08,NNE,32,0.0,3.0,85,0.00,,,0.00,0,weatherlink.com 1.10,2013-04-01 12:25:00,
2013-04-01 05:40:00,51.3,47.0,30.08,NNE,32,1.0,2.0,85,0.00,,,0.00,0,weatherlink.com 1.10,2013-04-01 12:40:00,
2013-04-01 05:55:00,50.9,47.0,30.08,NNE,32,1.0,3.0,85,0.00,,,0.00,0,weatherlink.com 1.10,2013-04-01 12:55:00,
2013-04-01 06:10:00,51.2,47.0,30.08,NNE,32,1.0,2.0,85,0.00,,,0.00,0,weatherlink.com 1.10,2013-04-01 13:10:00,
2013-04-01 06:25:00,51.5,47.0,30.08,NE,36,2.0,3.0,85,0.00,,,0.00,0,weatherlink.com 1.10,2013-04-01 13:25:00,
2013-04-01 06:40:00,51.6,47.0,30.08,NNE,32,3.0,5.0,85,0.00,,,0.00,0,weatherlink.com 1.10,2013-04-01 13:40:00,
2013-04-01 06:55:00,51.5,47.0,30.09,NE,48,3.0,4.0,85,0.00,,,0.00,0,weatherlink.com 1.10,2013-04-01 13:55:00,
2013-04-01 07:10:00,51.6,47.0,30.09,NE,37,0.0,5.0,85,0.00,,,0.00,9,weatherlink.com 1.10,2013-04-01 14:10:00,
2013-04-01 07:25:00,51.7,47.0,30.09,NE,37,0.0,1.0,85,0.00,,,0.00,23,weatherlink.com 1.10,2013-04-01 14:25:00,
2013-04-01 07:40:00,52.0,48.0,30.10,NE,37,0.0,1.0,85,0.00,,,0.00,49,weatherlink.com 1.10,2013-04-01 14:40:00,
2013-04-01 07:56:00,52.7,48.0,30.11,NE,37,0.0,1.0,85,0.00,,,0.00,109,weatherlink.com 1.10,2013-04-01 14:56:00,
2013-04-01 08:11:00,52.8,48.0,30.11,NE,37,2.0,2.0,85,0.00,,,0.00,98,weatherlink.com 1.10,2013-04-01 15:11:00,
2013-04-01 08:26:00,52.4,48.0,30.11,NE,37,0.0,3.0,85,0.00,,,0.00,274,weatherlink.com 1.10,2013-04-01 15:26:00,
2013-04-01 08:41:00,53.3,49.0,30.12,SSW,199,2.0,5.0,85,0.00,,,0.00,206,weatherlink.com 1.10,2013-04-01 15:41:00,
2013-04-01 08:56:00,53.7,49.0,30.13,SSW,199,0.0,1.0,85,0.00,,,0.00,185,weatherlink.com 1.10,2013-04-01 15:56:00,
2013-04-01 09:56:00,54.1,50.0,30.14,SSW,200,1.0,4.0,85,0.00,,,0.00,295,weatherlink.com 1.10,2013-04-01 16:56:00,
2013-04-01 10:11:00,54.1,50.0,30.14,SSW,201,2.0,4.0,85,0.00,,,0.00,200,weatherlink.com 1.10,2013-04-01 17:11:00,
2013-04-01 10:26:00,54.3,50.0,30.15,SSW,202,1.0,3.0,85,0.00,,,0.00,241,weatherlink.com 1.10,2013-04-01 17:26:00,
2013-04-01 10:41:00,55.0,51.0,30.15,SSW,202,0.0,3.0,85,0.00,,,0.00,264,weatherlink.com 1.10,2013-04-01 17:41:00,
2013-04-01 10:56:00,56.3,52.0,30.15,SSW,195,1.0,5.0,85,0.00,,,0.00,330,weatherlink.com 1.10,2013-04-01 17:56:00,
2013-04-01 11:11:00,57.0,52.0,30.16,SSW,196,2.0,5.0,84,0.00,,,0.00,271,weatherlink.com 1.10,2013-04-01 18:11:00,
2013-04-01 11:26:00,57.2,52.0,30.16,SSW,196,2.0,3.0,83,0.00,,,0.00,406,weatherlink.com 1.10,2013-04-01 18:26:00,
2013-04-01 11:56:00,58.7,54.0,30.17,SSW,192,2.0,5.0,83,0.00,,,0.00,550,weatherlink.com 1.10,2013-04-01 18:56:00,
2013-04-01 12:11:00,58.3,53.0,30.17,South,176,2.0,6.0,83,0.00,,,0.00,575,weatherlink.com 1.10,2013-04-01 19:11:00,
2013-04-01 12:26:00,60.4,55.0,30.17,SSW,202,5.0,6.0,81,0.00,,,0.00,710,weatherlink.com 1.10,2013-04-01 19:26:00,
2013-04-01 12:41:00,60.8,54.0,30.17,South,184,2.0,6.0,79,0.00,,,0.00,406,weatherlink.com 1.10,2013-04-01 19:41:00,
2013-04-01 12:56:00,59.9,53.0,30.17,SSW,202,2.0,5.0,78,0.00,,,0.00,679,weatherlink.com 1.10,2013-04-01 19:56:00,
2013-04-01 13:11:00,61.0,54.0,30.16,SSW,212,1.0,6.0,78,0.00,,,0.00,967,weatherlink.com 1.10,2013-04-01 20:11:00,
2013-04-01 13:26:00,61.0,54.0,30.17,South,188,4.0,6.0,78,0.00,,,0.00,893,weatherlink.com 1.10,2013-04-01 20:26:00,
2013-04-01 13:42:00,60.2,53.0,30.17,West,261,4.0,5.0,77,0.00,,,0.00,888,weatherlink.com 1.10,2013-04-01 20:42:00,
2013-04-01 13:56:00,59.6,52.0,30.17,WSW,249,3.0,5.0,75,0.00,,,0.00,879,weatherlink.com 1.10,2013-04-01 20:56:00,
2013-04-01 14:11:00,59.6,52.0,30.16,SW,215,5.0,5.0,76,0.00,,,0.00,865,weatherlink.com 1.10,2013-04-01 21:11:00,
2013-04-01 14:26:00,60.7,52.0,30.16,WSW,252,2.0,5.0,74,0.00,,,0.00,847,weatherlink.com 1.10,2013-04-01 21:26:00,
2013-04-01 14:41:00,60.4,52.0,30.16,WSW,246,1.0,6.0,73,0.00,,,0.00,826,weatherlink.com 1.10,2013-04-01 21:41:00,
2013-04-01 14:57:00,62.2,53.0,30.15,WSW,252,4.0,7.0,71,0.00,,,0.00,803,weatherlink.com 1.10,2013-04-01 21:57:00,
2013-04-01 15:15:00,62.0,52.0,30.15,SW,234,5.0,6.0,70,0.00,,,0.00,773,weatherlink.com 1.10,2013-04-01 22:15:00,
2013-04-01 15:27:00,60.4,53.0,30.15,South,189,5.0,7.0,76,0.00,,,0.00,742,weatherlink.com 1.10,2013-04-01 22:27:00,
2013-04-01 15:42:00,62.0,54.0,30.15,SSW,193,1.0,8.0,74,0.00,,,0.00,705,weatherlink.com 1.10,2013-04-01 22:42:00,
2013-04-01 15:57:00,62.0,54.0,30.15,SSW,205,2.0,7.0,76,0.00,,,0.00,668,weatherlink.com 1.10,2013-04-01 22:57:00,
2013-04-01 16:12:00,62.1,54.0,30.15,SSW,194,5.0,7.0,76,0.00,,,0.00,635,weatherlink.com 1.10,2013-04-01 23:12:00,
2013-04-01 16:42:00,59.3,52.0,30.15,WSW,254,5.0,6.0,78,0.00,,,0.00,538,weatherlink.com 1.10,2013-04-01 23:42:00,
2013-04-01 17:12:00,59.5,53.0,30.15,WSW,245,5.0,6.0,78,0.00,,,0.00,446,weatherlink.com 1.10,2013-04-02 00:12:00,
2013-04-01 17:27:00,59.5,53.0,30.15,SW,223,4.0,5.0,78,0.00,,,0.00,397,weatherlink.com 1.10,2013-04-02 00:27:00,
2013-04-01 17:42:00,58.4,52.0,30.15,WSW,253,2.0,6.0,80,0.00,,,0.00,343,weatherlink.com 1.10,2013-04-02 00:42:00,
2013-04-01 17:57:00,58.6,52.0,30.16,SW,229,1.0,5.0,80,0.00,,,0.00,292,weatherlink.com 1.10,2013-04-02 00:57:00,
2013-04-01 18:12:00,57.9,52.0,30.16,West,276,2.0,5.0,80,0.00,,,0.00,241,weatherlink.com 1.10,2013-04-02 01:12:00,
2013-04-01 18:27:00,57.5,52.0,30.16,WNW,292,3.0,5.0,81,0.00,,,0.00,185,weatherlink.com 1.10,2013-04-02 01:27:00,
2013-04-01 18:42:00,57.6,52.0,30.15,West,265,2.0,5.0,81,0.00,,,0.00,125,weatherlink.com 1.10,2013-04-02 01:42:00,
2013-04-01 18:57:00,58.2,52.0,30.15,West,261,0.0,3.0,79,0.00,,,0.00,72,weatherlink.com 1.10,2013-04-02 01:57:00,
2013-04-01 19:12:00,57.2,51.0,30.15,WNW,298,0.0,5.0,79,0.00,,,0.00,30,weatherlink.com 1.10,2013-04-02 02:12:00,
2013-04-01 19:27:00,56.3,50.0,30.15,West,280,1.0,3.0,80,0.00,,,0.00,12,weatherlink.com 1.10,2013-04-02 02:27:00,
2013-04-01 19:42:00,54.8,49.0,30.15,WNW,293,0.0,3.0,81,0.00,,,0.00,0,weatherlink.com 1.10,2013-04-02 02:42:00,
2013-04-01 19:57:00,54.0,48.0,30.14,WNW,293,0.0,0.0,81,0.00,,,0.00,0,weatherlink.com 1.10,2013-04-02 02:57:00,
2013-04-01 20:12:00,53.3,48.0,30.16,WNW,293,1.0,1.0,82,0.00,,,0.00,0,weatherlink.com 1.10,2013-04-02 03:12:00,
2013-04-01 20:27:00,52.6,48.0,30.16,WNW,293,0.0,1.0,83,0.00,,,0.00,0,weatherlink.com 1.10,2013-04-02 03:27:00,
2013-04-01 20:42:00,51.6,47.0,30.16,WNW,299,2.0,2.0,83,0.00,,,0.00,0,weatherlink.com 1.10,2013-04-02 03:42:00,
2013-04-01 20:57:00,50.8,46.0,30.16,WNW,302,1.0,3.0,83,0.00,,,0.00,0,weatherlink.com 1.10,2013-04-02 03:57:00,
2013-04-01 21:12:00,50.1,45.0,30.16,NNE,22,3.0,4.0,83,0.00,,,0.00,0,weatherlink.com 1.10,2013-04-02 04:12:00,
2013-04-01 21:27:00,49.9,45.0,30.16,NNE,22,0.0,3.0,83,0.00,,,0.00,0,weatherlink.com 1.10,2013-04-02 04:27:00,
2013-04-01 21:42:00,49.9,45.0,30.16,NNE,22,2.0,3.0,84,0.00,,,0.00,0,weatherlink.com 1.10,2013-04-02 04:42:00,
2013-04-01 21:57:00,50.7,46.0,30.16,NNE,22,2.0,3.0,84,0.00,,,0.00,0,weatherlink.com 1.10,2013-04-02 04:57:00,
2013-04-01 22:12:00,51.2,47.0,30.16,NNE,22,0.0,2.0,84,0.00,,,0.00,0,weatherlink.com 1.10,2013-04-02 05:12:00,
2013-04-01 22:27:00,51.2,47.0,30.16,NNE,22,1.0,2.0,84,0.00,,,0.00,0,weatherlink.com 1.10,2013-04-02 05:27:00,
2013-04-01 22:42:00,50.5,46.0,30.15,NNE,15,3.0,3.0,84,0.00,,,0.00,0,weatherlink.com 1.10,2013-04-02 05:42:00,
2013-04-01 22:57:00,49.6,45.0,30.15,NNE,19,0.0,5.0,84,0.00,,,0.00,0,weatherlink.com 1.10,2013-04-02 05:57:00,
2013-04-01 23:12:00,49.3,45.0,30.15,NNE,19,1.0,4.0,84,0.00,,,0.00,0,weatherlink.com 1.10,2013-04-02 06:12:00,
2013-04-01 23:27:00,48.7,44.0,30.15,NE,36,6.0,6.0,84,0.00,,,0.00,0,weatherlink.com 1.10,2013-04-02 06:27:00,
2013-04-01 23:42:00,48.5,44.0,30.15,NE,35,3.0,6.0,85,0.00,,,0.00,0,weatherlink.com 1.10,2013-04-02 06:42:00,
2013-04-01 23:57:00,48.2,44.0,30.16,NE,35,3.0,5.0,84,0.00,,,0.00,0,weatherlink.com 1.10,2013-04-02 06:57:00,